Hourly Data Report for April 23, 2004

TORONTO CITY
ONTARIO

43°40'00.000" N
79°24'00.000" W
112.50 m
6158355
71508
XTO

Download Data

Hourly Data (April 2004)
Hourly Data Report for April 23, 2004
TIME
LST
Temp Definition
°C
Dew Point Definition
°C
Rel Hum Definition
%
Precip. Amount Definition
mm

Wind Dir Definition
10's deg

Wind Spd Definition
km/h
Visibility Definition
km
Stn Press Definition
kPa
Hmdx Definition


Wind Chill Definition


Weather Definition


00:00 8.8 2.9 66   LegendMM LegendMM LegendMM 100.74     LegendNANA
01:00 8.7 3.2 68   LegendMM LegendMM LegendMM 100.71     LegendNANA
02:00 8.7 3.1 68   LegendMM LegendMM LegendMM 100.67     LegendNANA
03:00 8.7 2.2 64   LegendMM LegendMM LegendMM 100.74     LegendNANA
04:00 8.3 2.2 65   LegendMM LegendMM LegendMM 100.75     LegendNANA
05:00 7.7 2.1 68   LegendMM LegendMM LegendMM 100.78     LegendNANA
06:00 7.2 2.1 70   LegendMM LegendMM LegendMM 100.80     LegendNANA
07:00 7.4 2.0 69   LegendMM LegendMM LegendMM 100.88     LegendNANA
08:00 8.4 1.9 64   LegendMM LegendMM LegendMM 100.87     LegendNANA
09:00 8.1 0.9 60   LegendMM LegendMM LegendMM 100.85     LegendNANA
10:00 7.8 0.5 60   LegendMM LegendMM LegendMM 100.84     LegendNANA
11:00 8.5 0.2 56   LegendMM LegendMM LegendMM 100.82     LegendNANA
12:00 8.0 -0.1 57   LegendMM LegendMM LegendMM 100.79     LegendNANA
13:00 8.3 1.1 60   LegendMM LegendMM LegendMM 100.75     LegendNANA
14:00 10.1 2.6 60   LegendMM LegendMM LegendMM 100.67     LegendNANA
15:00 9.1 1.5 59   LegendMM LegendMM LegendMM 100.62     LegendNANA
16:00 9.5 2.0 59   LegendMM LegendMM LegendMM 100.56     LegendNANA
17:00 9.0 1.7 60   LegendMM LegendMM LegendMM 100.48     LegendNANA
18:00 8.0 1.7 64   LegendMM LegendMM LegendMM 100.39     LegendNANA
19:00 7.4 2.5 71   LegendMM LegendMM LegendMM 100.47     LegendNANA
20:00 7.4 2.4 71   LegendMM LegendMM LegendMM 100.60     LegendNANA
21:00 8.4 2.5 66   LegendMM LegendMM LegendMM 100.55     LegendNANA
22:00 8.9 3.0 66   LegendMM LegendMM LegendMM 100.56     LegendNANA
23:00 8.5 3.3 70   LegendMM LegendMM LegendMM 100.57     LegendNANA

Notes on Data Quality.

Legend

  • E = Estimated
  • M = Missing
  • NA = Not Available*
  • [empty] = Indicates an unobserved value
Date modified: